QPF
0.00 0.00 0.02 0.03 0.03 0.02 0.02 0.01 0.01 0.01 0.00 0.00 0.00 0.00 0.00 0.00 0.00 0.00 0.00 0.00 0.00 0.00 0.00 0.00 0.00 0.00 0.00 0.00 0.00 0.00 0.01 0.01 0.02 0.03 0.05 0.05 0.05 0.05 0.08 0.08 0.06 0.04 0.02
0.00 0.00 0.02 0.04 0.04 0.03 0.02 0.01 0.01 0.01 0.00 0.00 0.00 0.00 0.00 0.00 0.00 0.00 0.00 0.00 0.01 0.01 0.01 0.00 0.00 0.00 0.00 0.00 0.00 0.00 0.01 0.02 0.03 0.03 0.05 0.06 0.06 0.08 0.10 0.08 0.06 0.03 0.02
0.00 0.00 0.01 0.05 0.07 0.05 0.03 0.02 0.01 0.01 0.00 0.00 0.00 0.00 0.00 0.00 0.00 0.01 0.01 0.01 0.00 0.00 0.00 0.00 0.01 0.00 0.00 0.00 0.00 0.00 0.01 0.02 0.03 0.03 0.05 0.07 0.06 0.07 0.09 0.06 0.04 0.02 0.02
0.00 0.00 0.00 0.03 0.06 0.06 0.04 0.03 0.01 0.01 0.00 0.00 0.00 0.00 0.00 0.00 0.00 0.00 0.01 0.01 0.00 0.00 0.00 0.00 0.00 0.00 0.00 0.00 0.00 0.01 0.01 0.02 0.02 0.03 0.04 0.04 0.03 0.04 0.06 0.04 0.03 0.02 0.02
0.00 0.00 0.01 0.02 0.04 0.06 0.05 0.04 0.03 0.01 0.01 0.00 0.00 0.00 0.00 0.00 0.00 0.01 0.01 0.01 0.01 0.00 0.01 0.01 0.01 0.00 0.00 0.00 0.00 0.01 0.02 0.02 0.01 0.01 0.01 0.03 0.05 0.04 0.05 0.03 0.03 0.02 0.03
0.00 0.00 0.01 0.04 0.04 0.05 0.05 0.05 0.03 0.02 0.01 0.00 0.00 0.00 0.00 0.00 0.01 0.01 0.01 0.01 0.01 0.01 0.01 0.01 0.01 0.01 0.01 0.00 0.00 0.01 0.03 0.03 0.02 0.01 0.01 0.02 0.03 0.03 0.04 0.04 0.03 0.02 0.02
0.01 0.01 0.02 0.05 0.06 0.06 0.06 0.05 0.04 0.02 0.01 0.01 0.00 0.01 0.01 0.01 0.01 0.01 0.02 0.02 0.02 0.02 0.02 0.01 0.01 0.01 0.01 0.01 0.01 0.02 0.04 0.05 0.03 0.02 0.02 0.01 0.02 0.02 0.05 0.05 0.03 0.01 0.01
0.01 0.01 0.02 0.05 0.07 0.07 0.07 0.05 0.04 0.03 0.02 0.01 0.01 0.01 0.01 0.01 0.02 0.02 0.02 0.03 0.04 0.03 0.03 0.02 0.01 0.01 0.01 0.02 0.02 0.03 0.05 0.05 0.03 0.02 0.01 0.01 0.00 0.02 0.04 0.05 0.04 0.01 0.01
0.02 0.02 0.02 0.02 0.04 0.06 0.07 0.06 0.05 0.04 0.03 0.02 0.02 0.02 0.02 0.02 0.01 0.02 0.02 0.03 0.04 0.04 0.03 0.03 0.03 0.02 0.02 0.02 0.02 0.03 0.05 0.05 0.04 0.03 0.02 0.02 0.01 0.01 0.02 0.04 0.05 0.02 0.01
0.02 0.03 0.03 0.03 0.04 0.04 0.04 0.05 0.05 0.04 0.03 0.02 0.02 0.02 0.02 0.01 0.02 0.02 0.02 0.02 0.03 0.03 0.03 0.03 0.03 0.03 0.03 0.02 0.02 0.03 0.03 0.03 0.02 0.02 0.04 0.03 0.01 0.02 0.03 0.03 0.04 0.02 0.01
0.02 0.04 0.04 0.05 0.05 0.05 0.04 0.04 0.06 0.04 0.02 0.02 0.03 0.02 0.04 0.04 0.04 0.04 0.03 0.02 0.03 0.03 0.03 0.05 0.05 0.04 0.03 0.03 0.02 0.02 0.02 0.02 0.02 0.03 0.05 0.03 0.03 0.04 0.06 0.05 0.04 0.04 0.02
0.02 0.02 0.04 0.05 0.05 0.05 0.04 0.05 0.07 0.04 0.03 0.03 0.05 0.06 0.06 0.05 0.04 0.04 0.03 0.04 0.05 0.06 0.06 0.07 0.06 0.04 0.04 0.05 0.04 0.03 0.02 0.02 0.02 0.03 0.04 0.03 0.05 0.08 0.09 0.09 0.07 0.05 0.04
0.03 0.03 0.03 0.05 0.05 0.05 0.07 0.07 0.07 0.06 0.04 0.04 0.05 0.05 0.05 0.04 0.04 0.04 0.05 0.04 0.05 0.04 0.05 0.06 0.06 0.05 0.06 0.07 0.06 0.04 0.03 0.03 0.03 0.03 0.05 0.04 0.08 0.11 0.12 0.11 0.09 0.08 0.06
0.04 0.04 0.05 0.04 0.04 0.06 0.07 0.09 0.09 0.07 0.07 0.07 0.06 0.04 0.04 0.04 0.03 0.03 0.03 0.03 0.03 0.03 0.04 0.05 0.06 0.06 0.05 0.04 0.04 0.04 0.04 0.04 0.04 0.05 0.07 0.05 0.07 0.12 0.16 0.16 0.14 0.12 0.09
0.05 0.05 0.04 0.03 0.04 0.06 0.09 0.11 0.10 0.10 0.08 0.07 0.04 0.03 0.02 0.02 0.02 0.02 0.02 0.03 0.03 0.02 0.03 0.04 0.04 0.04 0.04 0.03 0.03 0.03 0.03 0.04 0.04 0.04 0.04 0.04 0.06 0.09 0.15 0.19 0.16 0.13 0.12
0.05 0.06 0.05 0.05 0.07 0.08 0.11 0.13 0.11 0.09 0.08 0.03 0.02 0.01 0.01 0.01 0.01 0.01 0.01 0.01 0.02 0.02 0.02 0.02 0.02 0.03 0.03 0.03 0.02 0.02 0.02 0.03 0.03 0.03 0.03 0.04 0.04 0.06 0.10 0.16 0.18 0.17 0.17
0.06 0.05 0.06 0.08 0.07 0.10 0.12 0.11 0.11 0.08 0.03 0.01 0.01 0.01 0.00 0.00 0.00 0.00 0.00 0.00 0.00 0.01 0.01 0.02 0.02 0.02 0.02 0.02 0.02 0.02 0.03 0.03 0.02 0.02 0.02 0.02 0.04 0.04 0.08 0.13 0.18 0.19 0.19
0.08 0.09 0.10 0.08 0.08 0.11 0.10 0.10 0.10 0.07 0.02 0.01 0.00 0.00 0.00 0.00 0.00 0.00 0.00 0.00 0.00 0.00 0.01 0.01 0.02 0.02 0.01 0.01 0.02 0.02 0.02 0.02 0.02 0.02 0.02 0.02 0.04 0.03 0.06 0.10 0.13 0.16 0.17
0.14 0.16 0.15 0.13 0.13 0.11 0.09 0.08 0.07 0.04 0.02 0.00 0.00 0.00 0.00 0.00 0.00 0.00 0.00 0.00 0.00 0.00 0.00 0.00 0.01 0.01 0.01 0.01 0.01 0.01 0.01 0.02 0.02 0.02 0.02 0.03 0.03 0.04 0.07 0.08 0.08 0.11 0.15
0.20 0.19 0.16 0.14 0.13 0.09 0.07 0.06 0.04 0.03 0.01 0.00 0.00 0.00 0.00 0.00 0.00 0.00 0.00 0.00 0.00 0.00 0.00 0.01 0.01 0.00 0.00 0.00 0.00 0.00 0.00 0.01 0.01 0.01 0.02 0.02 0.02 0.02 0.04 0.08 0.13 0.11 0.11
0.22 0.21 0.15 0.12 0.09 0.07 0.06 0.05 0.03 0.02 0.01 0.00 0.00 0.00 0.00 0.00 0.00 0.00 0.00 0.00 0.00 0.00 0.00 0.00 0.00 0.00 0.00 0.00 0.00 0.00 0.00 0.00 0.00 0.00 0.00 0.01 0.01 0.01 0.03 0.06 0.12 0.12 0.11
0.17 0.19 0.13 0.10 0.07 0.06 0.06 0.06 0.04 0.02 0.00 0.00 0.00 0.00 0.00 0.00 0.00 0.00 0.00 0.00 0.00 0.00 0.00 0.00 0.00 0.00 0.00 0.00 0.01 0.00 0.00 0.00 0.00 0.00 0.00 0.01 0.01 0.01 0.01 0.02 0.04 0.08 0.09
0.14 0.13 0.11 0.07 0.05 0.04 0.05 0.04 0.02 0.01 0.00 0.00 0.00 0.00 0.00 0.00 0.00 0.00 0.00 0.00 0.00 0.00 0.00 0.00 0.00 0.00 0.00 0.00 0.00 0.00 0.00 0.00 0.00 0.00 0.00 0.00 0.00 0.00 0.00 0.01 0.01 0.04 0.06
0.10 0.11 0.11 0.06 0.03 0.03 0.02 0.02 0.01 0.01 0.01 0.01 0.00 0.00 0.00 0.00 0.00 0.00 0.00 0.00 0.00 0.00 0.00 0.00 0.00 0.00 0.00 0.00 0.00 0.00 0.00 0.00 0.00 0.00 0.00 0.00 0.00 0.00 0.00 0.00 0.01 0.02 0.02
0.09 0.08 0.07 0.04 0.02 0.02 0.02 0.02 0.02 0.01 0.01 0.00 0.00 0.00 0.00 0.00 0.00 0.00 0.00 0.00 0.00 0.00 0.00 0.00 0.00 0.00 0.00 0.00 0.00 0.00 0.00 0.00 0.00 0.00 0.01 0.00 0.00 0.00 0.00 0.01 0.01 0.01 0.01
0.07 0.06 0.05 0.04 0.03 0.02 0.01 0.01 0.01 0.01 0.01 0.00 0.00 0.00 0.00 0.00 0.00 0.00 0.00 0.00 0.00 0.00 0.00 0.00 0.00 0.00 0.00 0.00 0.00 0.00 0.00 0.00 0.00 0.00 0.00 0.00 0.00 0.00 0.00 0.01 0.01 0.02 0.01
MSLP
1012.94 1013.04 1013.30 1013.70 1014.15 1014.58 1014.93 1015.16 1015.28 1015.32 1015.35 1015.42 1015.58 1015.83 1016.16 1016.52 1016.85 1017.12 1017.28 1017.34 1017.31 1017.24 1017.17 1017.14 1017.14 1017.18 1017.23 1017.27 1017.26 1017.21 1017.12 1017.02 1016.95 1016.94 1017.00 1017.14 1017.34 1017.57 1017.80 1018.01 1018.19 1018.33 1018.45
1012.61 1012.84 1013.23 1013.74 1014.28 1014.78 1015.17 1015.43 1015.55 1015.59 1015.61 1015.67 1015.81 1016.04 1016.35 1016.69 1017.01 1017.25 1017.40 1017.44 1017.41 1017.35 1017.30 1017.28 1017.32 1017.38 1017.45 1017.49 1017.48 1017.42 1017.31 1017.19 1017.11 1017.09 1017.16 1017.31 1017.54 1017.80 1018.07 1018.31 1018.51 1018.66 1018.79
1012.27 1012.63 1013.14 1013.76 1014.39 1014.96 1015.41 1015.71 1015.86 1015.92 1015.94 1015.99 1016.11 1016.32 1016.59 1016.89 1017.16 1017.36 1017.47 1017.50 1017.47 1017.42 1017.40 1017.42 1017.49 1017.58 1017.67 1017.72 1017.70 1017.62 1017.48 1017.34 1017.24 1017.21 1017.28 1017.44 1017.68 1017.97 1018.26 1018.52 1018.74 1018.92 1019.06
1011.99 1012.46 1013.07 1013.78 1014.50 1015.14 1015.65 1015.99 1016.18 1016.26 1016.29 1016.35 1016.45 1016.63 1016.86 1017.11 1017.32 1017.48 1017.56 1017.56 1017.54 1017.51 1017.52 1017.58 1017.68 1017.81 1017.91 1017.95 1017.92 1017.80 1017.64 1017.47 1017.34 1017.30 1017.37 1017.55 1017.80 1018.10 1018.41 1018.69 1018.93 1019.12 1019.28
1011.83 1012.38 1013.07 1013.85 1014.62 1015.30 1015.85 1016.23 1016.45 1016.57 1016.63 1016.69 1016.79 1016.95 1017.14 1017.34 1017.51 1017.62 1017.67 1017.67 1017.65 1017.64 1017.69 1017.78 1017.92 1018.06 1018.16 1018.18 1018.12 1017.98 1017.78 1017.58 1017.44 1017.39 1017.47 1017.65 1017.92 1018.23 1018.55 1018.84 1019.10 1019.30 1019.48
1011.83 1012.42 1013.15 1013.95 1014.73 1015.44 1016.00 1016.40 1016.65 1016.79 1016.88 1016.97 1017.08 1017.23 1017.40 1017.57 1017.71 1017.79 1017.82 1017.81 1017.81 1017.83 1017.90 1018.02 1018.17 1018.31 1018.40 1018.40 1018.30 1018.12 1017.89 1017.68 1017.52 1017.48 1017.56 1017.76 1018.05 1018.38 1018.71 1019.01 1019.27 1019.48 1019.67
1012.00 1012.59 1013.30 1014.08 1014.84 1015.52 1016.08 1016.48 1016.75 1016.91 1017.03 1017.15 1017.28 1017.44 1017.62 1017.78 1017.90 1017.97 1017.99 1017.99 1018.00 1018.04 1018.13 1018.27 1018.42 1018.55 1018.61 1018.57 1018.44 1018.22 1017.97 1017.74 1017.59 1017.56 1017.67 1017.90 1018.21 1018.56 1018.91 1019.21 1019.47 1019.68 1019.87
1012.30 1012.84 1013.50 1014.22 1014.92 1015.56 1016.08 1016.46 1016.73 1016.92 1017.07 1017.23 1017.40 1017.59 1017.78 1017.94 1018.07 1018.13 1018.16 1018.16 1018.18 1018.23 1018.33 1018.46 1018.61 1018.71 1018.74 1018.67 1018.50 1018.26 1017.99 1017.76 1017.63 1017.63 1017.78 1018.04 1018.39 1018.77 1019.13 1019.44 1019.69 1019.89 1020.07
1012.66 1013.13 1013.71 1014.34 1014.97 1015.54 1016.01 1016.37 1016.64 1016.85 1017.04 1017.23 1017.44 1017.67 1017.88 1018.07 1018.19 1018.26 1018.28 1018.29 1018.30 1018.35 1018.45 1018.57 1018.70 1018.78 1018.78 1018.68 1018.48 1018.22 1017.96 1017.74 1017.64 1017.68 1017.87 1018.18 1018.57 1018.97 1019.35 1019.67 1019.92 1020.11 1020.27
1013.02 1013.41 1013.90 1014.45 1014.99 1015.49 1015.90 1016.24 1016.51 1016.74 1016.96 1017.20 1017.46 1017.72 1017.97 1018.16 1018.29 1018.35 1018.36 1018.35 1018.35 1018.38 1018.47 1018.58 1018.68 1018.74 1018.72 1018.60 1018.40 1018.14 1017.88 1017.69 1017.61 1017.70 1017.93 1018.29 1018.71 1019.15 1019.55 1019.88 1020.13 1020.31 1020.44
1013.33 1013.66 1014.07 1014.54 1015.00 1015.43 1015.80 1016.12 1016.39 1016.65 1016.91 1017.20 1017.50 1017.79 1018.05 1018.24 1018.36 1018.40 1018.39 1018.35 1018.32 1018.33 1018.39 1018.48 1018.57 1018.62 1018.60 1018.48 1018.28 1018.03 1017.79 1017.62 1017.58 1017.69 1017.96 1018.35 1018.80 1019.27 1019.69 1020.03 1020.28 1020.45 1020.57
1013.57 1013.85 1014.21 1014.62 1015.02 1015.41 1015.75 1016.05 1016.33 1016.62 1016.92 1017.24 1017.58 1017.89 1018.16 1018.35 1018.44 1018.45 1018.39 1018.31 1018.25 1018.22 1018.26 1018.33 1018.41 1018.46 1018.45 1018.34 1018.16 1017.93 1017.72 1017.57 1017.55 1017.68 1017.96 1018.35 1018.82 1019.30 1019.74 1020.09 1020.35 1020.53 1020.65
1013.76 1014.02 1014.35 1014.71 1015.08 1015.43 1015.75 1016.06 1016.35 1016.67 1017.00 1017.36 1017.72 1018.04 1018.31 1018.48 1018.54 1018.51 1018.41 1018.28 1018.17 1018.11 1018.12 1018.18 1018.26 1018.32 1018.32 1018.24 1018.09 1017.89 1017.70 1017.57 1017.54 1017.67 1017.93 1018.32 1018.78 1019.25 1019.69 1020.05 1020.32 1020.51 1020.64
1013.90 1014.18 1014.50 1014.84 1015.19 1015.52 1015.83 1016.14 1016.45 1016.78 1017.15 1017.53 1017.90 1018.24 1018.49 1018.64 1018.68 1018.61 1018.46 1018.29 1018.14 1018.05 1018.03 1018.08 1018.16 1018.24 1018.26 1018.22 1018.10 1017.93 1017.76 1017.62 1017.59 1017.68 1017.91 1018.25 1018.67 1019.11 1019.53 1019.90 1020.18 1020.39 1020.53
1014.06 1014.35 1014.67 1015.00 1015.33 1015.65 1015.95 1016.26 1016.59 1016.94 1017.32 1017.72 1018.11 1018.44 1018.69 1018.83 1018.85 1018.75 1018.58 1018.38 1018.20 1018.09 1018.04 1018.08 1018.16 1018.24 1018.29 1018.28 1018.20 1018.05 1017.89 1017.75 1017.69 1017.73 1017.89 1018.17 1018.52 1018.91 1019.30 1019.65 1019.93 1020.16 1020.33
1014.24 1014.54 1014.86 1015.18 1015.49 1015.79 1016.09 1016.40 1016.74 1017.10 1017.49 1017.90 1018.29 1018.63 1018.88 1019.02 1019.04 1018.94 1018.76 1018.56 1018.36 1018.23 1018.17 1018.19 1018.27 1018.35 1018.42 1018.43 1018.37 1018.24 1018.09 1017.94 1017.84 1017.82 1017.91 1018.10 1018.37 1018.69 1019.01 1019.32 1019.60 1019.83 1020.03
1014.46 1014.75 1015.05 1015.35 1015.64 1015.93 1016.22 1016.52 1016.85 1017.22 1017.62 1018.03 1018.43 1018.77 1019.04 1019.19 1019.23 1019.16 1019.00 1018.81 1018.62 1018.48 1018.41 1018.41 1018.47 1018.55 1018.61 1018.63 1018.58 1018.47 1018.32 1018.16 1018.03 1017.96 1017.97 1018.07 1018.24 1018.46 1018.72 1018.97 1019.22 1019.44 1019.66
1014.68 1014.96 1015.23 1015.49 1015.75 1016.02 1016.30 1016.60 1016.93 1017.30 1017.70 1018.11 1018.51 1018.87 1019.15 1019.33 1019.41 1019.38 1019.27 1019.11 1018.94 1018.81 1018.73 1018.71 1018.74 1018.80 1018.84 1018.86 1018.82 1018.71 1018.57 1018.40 1018.24 1018.13 1018.07 1018.08 1018.15 1018.28 1018.45 1018.63 1018.83 1019.03 1019.23
1014.90 1015.13 1015.35 1015.58 1015.81 1016.06 1016.34 1016.64 1016.98 1017.35 1017.74 1018.15 1018.55 1018.91 1019.22 1019.44 1019.56 1019.59 1019.54 1019.43 1019.30 1019.18 1019.10 1019.05 1019.05 1019.07 1019.09 1019.09 1019.04 1018.95 1018.81 1018.65 1018.47 1018.32 1018.21 1018.14 1018.13 1018.17 1018.24 1018.34 1018.48 1018.63 1018.81
1015.06 1015.25 1015.42 1015.61 1015.83 1016.07 1016.36 1016.67 1017.02 1017.39 1017.78 1018.18 1018.57 1018.93 1019.25 1019.51 1019.68 1019.77 1019.79 1019.74 1019.65 1019.56 1019.47 1019.40 1019.37 1019.35 1019.33 1019.30 1019.25 1019.16 1019.03 1018.88 1018.71 1018.54 1018.39 1018.27 1018.18 1018.13 1018.12 1018.14 1018.20 1018.30 1018.43
1015.16 1015.30 1015.44 1015.61 1015.82 1016.07 1016.38 1016.71 1017.08 1017.45 1017.84 1018.22 1018.60 1018.95 1019.27 1019.55 1019.76 1019.91 1019.98 1020.00 1019.96 1019.89 1019.81 1019.73 1019.66 1019.61 1019.56 1019.50 1019.44 1019.35 1019.24 1019.10 1018.94 1018.78 1018.61 1018.45 1018.31 1018.19 1018.10 1018.05 1018.03 1018.06 1018.15
1015.18 1015.29 1015.41 1015.57 1015.80 1016.08 1016.42 1016.79 1017.17 1017.56 1017.94 1018.30 1018.65 1018.97 1019.28 1019.55 1019.79 1019.98 1020.11 1020.18 1020.19 1020.16 1020.09 1020.01 1019.92 1019.84 1019.76 1019.69 1019.61 1019.53 1019.43 1019.31 1019.17 1019.01 1018.84 1018.66 1018.48 1018.32 1018.17 1018.05 1017.98 1017.95 1017.97
1015.13 1015.23 1015.35 1015.53 1015.79 1016.11 1016.49 1016.90 1017.31 1017.70 1018.07 1018.40 1018.70 1018.99 1019.26 1019.52 1019.75 1019.97 1020.13 1020.25 1020.32 1020.33 1020.29 1020.22 1020.13 1020.03 1019.94 1019.85 1019.77 1019.69 1019.61 1019.51 1019.38 1019.24 1019.07 1018.89 1018.69 1018.49 1018.31 1018.15 1018.02 1017.95 1017.92
1015.02 1015.13 1015.28 1015.49 1015.78 1016.15 1016.57 1017.02 1017.45 1017.84 1018.19 1018.48 1018.74 1018.97 1019.19 1019.42 1019.64 1019.86 1020.06 1020.22 1020.33 1020.38 1020.38 1020.34 1020.26 1020.17 1020.08 1019.99 1019.91 1019.84 1019.76 1019.67 1019.57 1019.43 1019.27 1019.09 1018.89 1018.68 1018.48 1018.29 1018.14 1018.03 1017.97
1014.85 1015.00 1015.18 1015.43 1015.76 1016.17 1016.63 1017.10 1017.54 1017.93 1018.25 1018.50 1018.71 1018.89 1019.06 1019.25 1019.45 1019.66 1019.88 1020.07 1020.22 1020.32 1020.36 1020.36 1020.31 1020.25 1020.17 1020.09 1020.02 1019.95 1019.88 1019.80 1019.70 1019.58 1019.43 1019.25 1019.05 1018.84 1018.63 1018.44 1018.28 1018.16 1018.07
1014.62 1014.82 1015.04 1015.33 1015.70 1016.13 1016.61 1017.09 1017.53 1017.91 1018.21 1018.42 1018.59 1018.72 1018.85 1019.00 1019.18 1019.39 1019.61 1019.82 1020.01 1020.15 1020.24 1020.28 1020.28 1020.24 1020.19 1020.13 1020.07 1020.01 1019.95 1019.87 1019.78 1019.66 1019.51 1019.34 1019.15 1018.95 1018.75 1018.56 1018.40 1018.27 1018.18
Thickness
5798 5794 5782 5780 5778 5777 5777 5776 5775 5773 5771 5770 5768 5766 5764 5763 5762 5761 5760 5760 5759 5758 5757 5757 5756 5756 5755 5754 5754 5753 5752 5751 5750 5749 5748 5746 5745 5744 5743 5743 5743 5743 5740
5799 5791 5780 5778 5776 5775 5774 5774 5772 5771 5769 5767 5765 5763 5762 5761 5760 5759 5758 5758 5757 5756 5755 5755 5754 5754 5753 5752 5752 5751 5750 5749 5749 5748 5747 5746 5743 5742 5741 5742 5743 5742 5739
5797 5789 5779 5776 5774 5773 5772 5771 5770 5768 5766 5764 5763 5761 5759 5758 5758 5757 5756 5756 5755 5754 5753 5753 5752 5752 5751 5750 5749 5749 5748 5747 5747 5747 5748 5748 5744 5740 5740 5740 5740 5738 5737
5795 5788 5780 5773 5771 5770 5769 5768 5766 5765 5763 5762 5760 5758 5757 5756 5755 5754 5754 5753 5753 5752 5751 5750 5749 5749 5748 5747 5747 5746 5746 5746 5746 5747 5751 5750 5746 5740 5738 5738 5737 5737 5736
5792 5786 5778 5771 5769 5767 5766 5765 5763 5762 5760 5759 5757 5756 5754 5754 5753 5752 5751 5751 5750 5749 5748 5748 5747 5746 5745 5745 5744 5744 5744 5744 5745 5748 5750 5748 5744 5738 5737 5736 5735 5735 5734
5789 5784 5776 5769 5766 5765 5763 5762 5760 5759 5757 5756 5754 5753 5752 5751 5750 5749 5748 5747 5747 5746 5745 5744 5744 5743 5742 5742 5741 5741 5741 5742 5745 5749 5747 5747 5743 5737 5735 5734 5734 5733 5733
5786 5782 5774 5766 5763 5762 5760 5759 5757 5756 5754 5753 5751 5750 5749 5748 5747 5746 5744 5744 5743 5742 5742 5741 5740 5740 5739 5739 5738 5738 5738 5740 5746 5746 5745 5745 5740 5735 5734 5733 5732 5731 5731
5784 5781 5772 5763 5760 5759 5757 5756 5754 5753 5751 5750 5748 5747 5745 5744 5743 5742 5741 5740 5739 5739 5738 5737 5736 5736 5736 5736 5735 5736 5736 5737 5742 5744 5744 5742 5736 5733 5732 5731 5730 5729 5729
5781 5779 5771 5765 5759 5756 5754 5753 5751 5750 5748 5747 5745 5744 5742 5741 5740 5739 5738 5736 5736 5735 5734 5734 5733 5733 5733 5732 5732 5732 5733 5735 5741 5742 5741 5739 5733 5731 5730 5729 5728 5727 5727
5776 5775 5770 5767 5763 5759 5755 5750 5748 5746 5745 5744 5742 5741 5740 5738 5737 5736 5735 5734 5733 5732 5732 5731 5730 5730 5730 5730 5729 5729 5730 5732 5741 5741 5739 5735 5730 5728 5727 5726 5726 5725 5725
5768 5769 5768 5766 5761 5759 5757 5751 5747 5744 5742 5741 5740 5738 5738 5740 5739 5736 5734 5731 5730 5730 5729 5729 5728 5728 5727 5727 5727 5727 5728 5734 5739 5738 5735 5731 5728 5726 5725 5724 5723 5723 5723
5760 5763 5763 5763 5759 5758 5756 5751 5747 5746 5743 5743 5740 5738 5738 5736 5735 5734 5729 5728 5727 5727 5727 5726 5726 5726 5726 5728 5727 5725 5730 5732 5735 5734 5732 5727 5725 5724 5723 5722 5721 5720 5720
5760 5759 5759 5758 5756 5756 5753 5750 5747 5745 5741 5740 5737 5734 5733 5733 5732 5732 5730 5728 5727 5726 5727 5726 5726 5727 5727 5726 5726 5727 5727 5729 5731 5731 5729 5725 5723 5722 5721 5719 5719 5718 5717
5757 5756 5756 5755 5753 5751 5750 5747 5744 5743 5739 5738 5733 5732 5731 5730 5729 5728 5726 5726 5726 5726 5723 5724 5722 5723 5722 5722 5722 5723 5723 5724 5726 5727 5724 5722 5720 5719 5718 5717 5716 5715 5715
5751 5752 5752 5751 5748 5746 5744 5743 5742 5739 5738 5733 5730 5728 5727 5728 5726 5726 5722 5721 5723 5723 5722 5720 5720 5719 5719 5719 5720 5720 5720 5720 5721 5722 5723 5719 5718 5717 5716 5715 5714 5713 5713
5748 5748 5749 5747 5745 5742 5741 5739 5738 5736 5732 5732 5729 5725 5724 5725 5723 5722 5721 5719 5720 5720 5719 5718 5718 5717 5718 5717 5718 5717 5717 5718 5717 5717 5720 5719 5717 5716 5715 5714 5713 5712 5711
5746 5747 5745 5744 5742 5740 5739 5737 5736 5734 5732 5730 5725 5721 5720 5720 5718 5718 5719 5718 5717 5716 5715 5715 5715 5716 5716 5716 5716 5715 5716 5715 5716 5715 5716 5717 5718 5716 5714 5713 5712 5711 5710
5744 5742 5742 5744 5741 5738 5736 5734 5733 5732 5730 5727 5724 5720 5717 5715 5715 5715 5716 5716 5713 5715 5715 5714 5714 5715 5715 5715 5715 5715 5715 5714 5714 5713 5715 5715 5715 5717 5715 5712 5711 5710 5709
5741 5739 5738 5740 5738 5736 5733 5731 5730 5728 5726 5725 5722 5720 5716 5714 5713 5714 5713 5711 5712 5713 5713 5713 5712 5712 5712 5712 5714 5713 5714 5714 5712 5714 5714 5714 5713 5713 5714 5712 5710 5709 5708
5739 5737 5736 5735 5734 5733 5731 5729 5728 5726 5725 5723 5721 5717 5714 5713 5711 5712 5712 5709 5711 5712 5710 5708 5707 5707 5708 5709 5713 5713 5712 5712 5712 5712 5713 5714 5713 5712 5712 5712 5710 5709 5707
5735 5733 5733 5732 5731 5730 5730 5729 5727 5725 5724 5723 5721 5716 5714 5712 5710 5710 5712 5708 5709 5709 5706 5707 5706 5707 5707 5707 5709 5709 5711 5711 5710 5709 5710 5712 5712 5711 5711 5710 5709 5708 5707
5732 5732 5731 5731 5730 5730 5730 5729 5727 5726 5725 5724 5721 5716 5714 5712 5710 5711 5709 5710 5708 5706 5705 5704 5703 5705 5706 5706 5706 5706 5706 5705 5704 5708 5708 5707 5708 5709 5709 5708 5707 5705 5706
5731 5731 5733 5732 5730 5731 5730 5728 5726 5723 5722 5722 5720 5717 5714 5712 5711 5709 5708 5708 5706 5708 5706 5702 5701 5701 5703 5704 5703 5703 5703 5702 5703 5704 5701 5702 5702 5703 5705 5704 5704 5703 5703
5734 5734 5733 5732 5731 5730 5729 5728 5726 5723 5723 5723 5721 5720 5715 5713 5711 5709 5708 5706 5705 5707 5703 5704 5702 5701 5699 5703 5701 5699 5698 5697 5696 5698 5700 5700 5698 5698 5698 5700 5701 5699 5699
5738 5736 5734 5732 5731 5730 5729 5728 5725 5725 5725 5725 5722 5719 5716 5715 5712 5710 5708 5706 5705 5705 5703 5700 5699 5698 5699 5699 5699 5697 5695 5694 5694 5693 5692 5693 5696 5696 5695 5694 5695 5695 5694
5740 5738 5735 5732 5731 5730 5728 5728 5725 5725 5724 5722 5720 5719 5717 5717 5714 5711 5709 5706 5705 5705 5701 5699 5697 5697 5695 5693 5694 5695 5693 5692 5691 5690 5689 5688 5690 5692 5690 5690 5691 5690 5689